• Join FlightAware (Why Join?)
  • Login
  • US Flag 
02:48AM EST


 

Airport Tracker/Info


-or-


 

Live Flight TrackerFlight Track Log ✈ SLI2200 ✈ 10-Jul-2013 ✈ MMHO / HMO - KLAX

Flight Track Log - Related Links

Times and Time Zones

All times are in EDT time to prevent confusion due to time zone crossing. See the SLI2200 flight status page for this flight to view local times or setup timezone preferences in your user account.

Time Position Orientation Groundspeed Altitude Reporting Facility
EDT Latitude Longitude Course Direction KTS MPH feet Rate Location/Type
02:41PM 31.8967 -114.4950 313° West 448 516 36,000  Level Los Angeles Center
02:42PM 31.9817 -114.6036 313° West 450 518 36,000  Level Los Angeles Center
02:43PM 32.0483 -114.6908 312° West 448 516 36,000  Level Los Angeles Center
02:44PM 32.1636 -114.8439 312° West 445 512 36,000  Level Los Angeles Center
02:45PM 32.2308 -114.9294 313° West 444 511 36,000  Level Los Angeles Center
02:46PM 32.3325 -115.0583 313° West 444 511 36,000 -48 Level Los Angeles Center
02:47PM 32.3872 -115.1533 304° West 440 506 35,900  Descending Los Angeles Center
02:48PM 32.4731 -115.3125 303° West 439 505 36,000 48 Climbing Los Angeles Center
02:49PM 32.5400 -115.4364 303° West 447 514 36,000  Level Los Angeles Center
02:50PM 32.6097 -115.5639 303° West 457 526 36,000  Level Los Angeles Center
02:51PM 32.6781 -115.6908 303° West 459 528 36,000 -48 Level Los Angeles Center
02:52PM 32.7303 -115.7900 302° West 451 519 35,900 -774 Descending Los Angeles Center
02:53PM 32.8197 -115.9558 303° West 431 496 34,400 -1,147 Descending Los Angeles Center
02:54PM 32.8797 -116.0714 302° West 419 482 33,300 -1,620 Descending Los Angeles Center
02:55PM 32.9550 -116.2186 301° West 400 460 30,700 -2,208 Descending Los Angeles Center
02:56PM 33.0000 -116.3106 300° West 402 463 28,700 -2,661 Descending Los Angeles Center
02:57PM 33.0706 -116.4533 301° West 405 466 25,200 -2,274 Descending Los Angeles Center
02:58PM 33.1256 -116.5653 300° West 394 453 24,000 -581 Descending Los Angeles Center
02:59PM 33.1497 -116.6767 285° West 356 410 24,000 -387 Level Los Angeles Center
03:01PM 33.1636 -116.7925 278° West 354 407 23,200 -1,809 Descending Los Angeles Center
03:02PM 33.1817 -116.9411 278° West 367 422 19,900 -3,022 Descending Los Angeles Center
03:03PM 33.1975 -117.0908 277° West 377 434 16,300 -3,168 Descending Los Angeles Center
03:04PM 33.2108 -117.2117 278° West 373 429 13,300 -2,032 Descending Los Angeles Center
03:05PM 33.2247 -117.3164 279° West 339 390 12,100 -629 Descending Los Angeles Center
03:06PM 33.2397 -117.4089 281° West 310 357 12,000 -48 Descending Los Angeles Center
03:07PM 33.2478 -117.5075 276° West 298 343 12,000 48 Level Los Angeles Center
03:08PM 33.2697 -117.6244 283° West 310 357 12,100 -290 Climbing Los Angeles Center
03:09PM 33.3292 -117.6861 319° Northwest 295 339 11,400 -1,008 Descending Los Angeles Center
03:10PM 33.4000 -117.7667 316° Northwest 285 328 9,900 -605 Descending Southern California TRACON
03:11PM 33.4667 -117.8167 328° Northwest 278 320 10,100 -350 Climbing Southern California TRACON
03:12PM 33.5167 -117.8833 312° West 280 322 9,200 -1,050 Descending Southern California TRACON
03:13PM 33.5619 -117.9300 319° Northwest 278 320 8,000 -1,150 Descending Los Angeles Center
03:14PM 33.6333 -118.0000 321° Northwest 253 291 6,900 -500 Descending Southern California TRACON
03:15PM 33.7000 -118.0167 348° North 253 291 7,000 50 Climbing Southern California TRACON
03:16PM 33.7667 -118.0500 337° Northwest 278 320 7,000 -250 Level Southern California TRACON
03:17PM 33.8500 -118.0833 342° North 278 320 6,500 -950 Descending Southern California TRACON
03:18PM 33.9167 -118.1167 337° Northwest 260 299 5,100 -1,000 Descending Southern California TRACON
03:19PM 33.9500 -118.1667 309° West 235 270 4,600 -1,050 Descending Southern California TRACON
03:20PM 33.9500 -118.2500 270° West 226 260 3,000 -1,400 Descending Southern California TRACON
03:21PM 33.9500 -118.3000 270° West 189 217 1,800 -1,263 Descending Southern California TRACON
03:22PM 33.9333 -118.3667 253° West 150 173 600 -866 Descending Southern California TRACON
03:23PM 33.9403 -118.3703 337° Northwest 172 198 400 -324 Descending Los Angeles Center
03:25PM 33.9333 -118.4000 270° West  Level FlightAware Approximate